Theta_e
362 364 363 361 361 361 361 361 360 361 362 360 358 361 362 363 364 364 363 367 367 370 369 373 370 368 367 371 376 368 370 369 371 366 366 366 365 361 358 359 358 355
362 363 364 362 363 364 364 363 362 361 363 367 362 365 363 366 362 365 366 367 369 368 374 370 369 371 370 369 370 366 370 371 366 361 366 367 362 362 359 359 357 364
361 363 361 361 359 362 360 363 364 364 362 363 362 364 362 365 366 364 368 366 366 364 366 371 372 371 367 371 374 368 365 367 365 363 367 367 366 365 364 361 359 359
362 363 360 357 359 359 359 361 363 365 364 362 362 359 361 359 362 363 366 365 367 366 365 367 367 367 367 370 373 365 366 371 368 370 370 369 367 364 365 363 360 359
361 361 361 360 358 360 360 359 359 361 361 361 361 364 360 367 365 365 365 364 367 365 369 370 369 368 370 370 372 367 367 368 367 369 367 368 367 364 360 362 364 360
360 362 363 361 361 360 359 358 360 358 360 358 361 361 363 364 365 364 364 363 361 361 363 364 366 364 366 369 370 369 364 363 358 366 367 366 363 363 359 362 364 362
356 358 358 358 359 360 359 359 359 361 359 360 361 361 363 363 363 365 366 364 363 362 361 364 366 364 365 367 369 368 368 366 364 370 368 366 366 364 362 364 365 363
354 355 358 358 356 357 358 359 360 360 362 361 359 361 362 362 364 363 363 364 362 363 364 363 367 369 366 365 367 368 368 364 358 363 363 364 366 369 366 360 366 366
353 355 355 355 354 353 354 355 358 360 361 360 358 358 362 362 362 362 363 364 362 362 365 365 369 368 363 364 365 366 368 365 361 363 363 362 361 362 361 362 360 361
354 353 353 354 352 352 352 355 355 356 360 359 358 358 358 361 362 362 362 365 361 363 366 365 366 365 364 363 364 368 368 365 363 365 367 365 363 360 360 361 358 359
353 352 352 353 353 352 352 353 354 355 357 358 358 358 357 359 361 362 363 365 361 362 365 366 366 366 364 361 362 363 362 360 362 364 362 362 361 361 361 361 360 358
356 354 352 352 352 353 352 352 353 354 354 354 356 357 359 357 358 360 360 364 365 363 363 364 365 365 366 364 362 362 362 363 362 362 361 362 362 360 360 359 357 358
356 356 353 352 352 354 353 353 353 353 353 352 354 356 357 356 356 359 360 359 364 361 359 363 365 363 366 366 364 364 362 363 360 361 360 359 360 358 357 358 358 356
360 358 356 356 356 358 355 354 354 354 354 354 354 354 354 356 355 355 358 360 359 359 359 360 361 362 364 365 364 363 362 363 364 362 360 361 360 361 358 356 355 355
363 360 360 360 359 359 358 357 356 356 355 356 356 354 354 355 357 355 356 357 358 359 359 357 355 357 358 360 362 364 364 361 361 360 360 359 358 356 356 356 355 354
365 365 364 364 362 362 363 361 358 359 357 357 356 356 357 359 359 357 356 355 356 358 357 354 353 352 360 364 363 360 361 358 356 356 355 358 359 358 354 353 353 354
365 365 365 361 365 365 366 367 362 359 358 359 359 359 361 363 359 358 357 355 353 355 357 354 353 353 357 344 347 353 360 360 359 360 361 360 358 360 358 354 353 352
362 363 360 354 358 367 368 367 367 366 365 362 357 358 363 361 359 359 359 358 356 355 354 353 353 359 339 341 344 345 360 358 354 353 352 353 354 354 353 353 352 351
358 359 362 360 356 357 367 367 368 368 365 362 360 361 360 360 361 358 358 357 356 356 351 350 349 342 336 339 341 340 345 361 353 352 349 349 351 352 353 354 357 356
359 358 356 358 360 360 361 360 360 361 362 361 361 360 360 359 358 359 358 358 356 354 356 350 351 345 337 337 338 337 339 350 355 351 351 350 352 352 351 352 356 355
355 357 357 356 357 357 357 358 358 358 358 361 360 358 358 358 356 356 355 356 354 352 351 348 344 326 328 331 331 333 334 349 355 352 352 351 350 352 356 354 355 353
343 347 351 353 353 352 352 353 354 355 354 357 357 357 357 357 359 357 358 355 355 354 352 351 344 323 324 326 327 329 333 353 358 358 356 354 353 354 355 358 357 359
343 343 341 341 343 347 348 349 350 351 353 353 353 355 355 356 352 353 354 351 350 350 351 349 350 325 319 320 322 324 337 358 360 358 356 356 353 354 355 361 358 362
340 340 338 337 338 340 342 343 346 346 346 349 349 350 349 347 347 349 351 351 349 349 351 352 344 326 317 316 318 321 338 356 360 357 358 350 348 351 353 356 359 364
336 337 335 335 335 337 339 341 344 345 346 346 347 349 349 350 350 345 346 349 348 346 347 350 344 332 315 315 316 320 341 358 359 358 351 350 351 354 353 354 358 352
336 339 339 338 338 338 338 339 339 339 342 347 346 346 345 348 349 348 346 347 349 345 346 344 340 333 325 312 313 317 326 357 359 352 348 350 354 351 353 354 355 353
Wind_Speed
8 8 7 7 6 5 5 6 6 6 4 4 6 5 5 5 4 3 5 5 5 5 5 4 3 3 3 2 2 3 3 4 1 4 4 3 4 4 4 3 2 3
9 9 7 7 6 5 5 5 5 5 5 4 3 5 5 5 6 5 5 5 5 5 4 4 4 3 3 3 3 3 2 2 4 4 3 3 4 4 4 3 3 2
10 9 9 9 8 8 8 6 5 5 5 6 5 5 5 6 6 6 5 5 6 6 5 4 4 4 4 3 3 3 4 3 3 5 1 3 4 3 4 4 4 3
10 9 9 9 8 9 8 7 7 6 6 6 6 6 6 6 6 7 6 6 5 5 6 6 5 5 5 4 4 4 4 3 3 4 2 3 3 4 3 4 3 3
11 10 8 9 8 8 8 8 8 7 7 6 6 5 5 2 5 6 6 7 6 6 6 5 6 6 5 5 5 4 1 3 5 4 4 4 4 4 4 3 2 4
10 9 8 8 8 8 8 8 8 8 8 8 7 6 6 6 6 6 7 7 8 7 7 7 7 7 7 6 6 3 3 2 2 5 4 4 4 4 5 2 3 4
11 10 10 9 9 9 8 8 8 8 7 7 7 7 7 7 7 6 6 7 7 7 8 7 6 6 6 5 5 6 7 6 7 4 6 4 5 4 5 2 4 4
11 10 10 10 10 10 10 9 8 8 8 7 7 8 7 7 7 7 7 7 8 7 7 6 7 5 6 6 6 7 6 6 7 6 7 5 4 4 4 5 3 4
10 10 10 11 12 10 11 11 9 9 8 8 8 7 8 8 8 8 7 7 7 6 6 6 6 7 7 7 6 7 7 6 4 6 7 6 6 6 6 5 6 5
10 9 11 11 12 10 11 11 10 10 9 9 9 8 8 9 8 8 8 7 8 6 7 7 7 7 7 7 7 7 6 6 6 5 4 5 5 5 5 6 6 6
9 10 10 11 11 10 12 12 11 10 9 9 10 9 9 8 8 8 7 8 8 8 7 8 7 8 8 8 7 7 7 7 7 6 6 6 6 6 5 6 6 7
9 10 10 11 11 10 11 11 11 11 11 12 10 9 9 9 8 9 8 8 8 8 8 8 7 7 7 8 8 7 7 7 7 7 7 7 7 7 7 7 7 7
11 10 10 10 10 9 10 10 10 10 10 10 10 10 9 9 9 9 8 9 9 9 9 8 8 8 7 8 8 7 7 7 8 7 7 7 7 8 8 7 8 8
10 11 11 9 8 8 8 8 8 9 10 10 8 9 10 10 11 10 9 9 9 9 9 8 9 9 9 8 8 8 8 8 7 7 7 7 8 7 8 8 8 9
8 9 9 9 8 7 7 8 8 9 9 8 8 8 9 10 10 10 9 10 9 9 9 9 9 10 9 8 8 8 8 8 8 8 8 7 7 8 8 8 8 9
6 6 7 9 10 8 8 9 9 9 8 9 9 10 9 7 9 9 10 10 10 10 10 10 9 8 8 10 8 7 8 7 5 6 8 8 7 7 8 9 9 9
3 5 3 7 7 8 8 9 9 8 8 8 9 8 8 8 8 10 10 10 11 10 10 10 9 8 9 12 8 1 4 6 6 8 8 7 7 7 8 9 10 10
6 5 3 6 6 4 6 6 7 7 7 8 9 10 8 9 10 10 10 10 9 10 10 9 9 5 14 13 13 11 6 7 8 8 8 8 8 9 8 9 9 10
8 8 6 5 7 8 3 3 3 5 7 8 9 9 9 9 9 10 10 10 10 9 10 10 11 9 12 13 13 11 9 7 8 9 9 9 8 8 8 7 7 7
6 7 8 7 6 4 4 4 5 5 6 7 7 8 9 9 10 10 9 8 9 9 8 10 6 5 7 12 12 11 10 7 8 10 9 9 9 9 9 8 6 7
5 6 6 6 6 5 4 6 5 3 5 6 6 6 6 7 8 8 8 9 8 8 7 6 9 13 15 11 5 3 5 5 7 9 9 9 10 9 9 10 9 9
7 4 2 5 5 4 4 5 6 5 6 5 6 6 6 6 5 7 6 3 7 8 9 8 5 11 9 9 8 6 2 5 6 8 10 10 10 10 8 8 8 6
5 5 7 9 7 2 4 5 5 3 1 3 5 6 7 5 5 7 6 4 3 4 6 3 3 9 7 4 4 5 4 5 7 8 10 10 10 10 8 7 8 5
7 7 8 6 1 2 1 2 3 2 2 3 4 5 4 5 4 2 1 2 1 3 4 4 5 7 7 7 6 6 3 4 6 7 6 9 10 11 8 4 3 11
6 6 6 4 3 3 1 1 1 2 3 3 3 2 2 3 1 1 2 2 3 5 8 5 6 6 9 8 8 7 4 2 3 2 1 3 3 1 1 3 1 9
5 5 5 4 4 3 3 3 3 2 2 2 2 2 3 4 3 2 3 3 3 5 6 6 7 7 9 12 12 11 7 1 1 3 3 3 3 2 3 1 2 4
Wind_Direction
183 183 183 187 190 202 197 192 199 196 216 199 196 187 191 193 213 175 193 168 182 194 183 198 199 212 209 188 232 225 168 267 178 252 272 284 269 270 271 264 263 265
188 187 186 187 185 194 197 204 192 211 184 227 230 133 215 177 184 193 186 183 183 197 185 190 197 204 229 207 188 223 289 276 262 231 222 257 268 267 266 259 290 337
194 191 191 195 189 189 198 193 199 207 202 202 209 203 186 191 187 188 188 197 197 192 188 202 192 202 208 208 193 229 218 238 257 283 250 265 278 295 288 282 227 185
198 201 197 204 199 190 200 192 195 208 217 198 202 201 221 178 189 173 190 200 196 206 189 200 205 204 196 202 213 230 219 223 249 260 254 253 262 273 273 267 301 263
195 200 208 207 207 202 197 201 203 199 211 207 203 201 191 207 181 184 186 188 207 206 201 199 192 217 190 200 204 235 350 245 263 242 239 249 244 240 250 236 282 294
196 199 204 212 208 208 207 201 206 212 199 199 210 194 196 193 208 214 190 194 194 210 202 203 198 206 204 193 207 195 226 227 299 240 259 232 245 234 247 169 212 242
193 195 203 204 211 206 214 212 205 217 208 212 196 214 203 191 204 218 211 206 214 198 216 196 205 204 204 205 183 213 208 186 190 203 243 233 231 252 265 253 250 250
197 191 199 204 209 205 211 209 214 202 215 218 215 197 215 210 200 207 210 212 215 209 213 205 187 201 219 207 204 208 221 217 214 199 223 239 253 238 232 262 242 238
197 197 198 204 210 211 210 211 203 209 205 214 222 205 200 220 205 213 211 205 224 211 201 213 190 201 219 225 216 210 217 246 217 178 231 229 226 228 240 237 238 245
198 204 204 204 209 211 215 214 209 203 206 213 217 221 212 200 221 215 202 202 212 217 204 217 207 215 218 217 219 220 228 219 242 249 238 236 241 246 243 239 250 249
203 207 212 211 214 211 211 214 215 210 201 214 209 215 225 211 200 218 210 197 210 210 210 216 219 221 225 231 222 222 222 228 229 226 228 235 240 247 255 263 263 266
207 213 216 215 217 218 220 216 213 213 207 204 211 219 216 225 209 205 209 204 213 216 214 216 222 228 228 234 238 229 223 232 227 227 230 231 235 233 235 235 247 243
204 209 216 218 215 221 218 220 224 212 220 224 198 213 220 223 223 213 203 211 209 219 221 218 220 224 227 226 240 243 239 233 232 229 230 236 233 240 244 241 242 243
209 205 214 218 215 213 226 229 223 224 214 224 226 204 214 224 226 215 210 215 212 213 221 219 212 222 221 227 230 236 236 233 237 242 242 242 246 240 246 252 249 249
224 213 205 209 215 213 221 237 226 223 227 225 220 226 214 220 228 231 220 213 215 215 220 224 221 216 220 216 224 233 244 243 240 240 240 241 248 258 249 244 253 258
231 239 216 197 198 200 208 215 225 228 224 219 223 222 226 226 230 229 230 226 221 213 217 224 228 229 216 216 203 223 231 253 274 290 271 251 248 251 260 259 257 263
250 233 236 233 207 202 196 207 219 225 224 224 227 228 229 226 230 233 232 232 230 223 220 225 228 239 172 151 143 131 234 222 232 233 236 248 249 251 257 265 268 271
221 228 248 274 284 223 194 205 212 224 233 228 225 222 219 225 222 226 232 237 237 234 236 234 240 200 157 165 167 170 191 243 253 250 246 243 240 247 250 253 257 259
220 224 223 196 214 244 248 213 221 225 222 226 223 223 224 220 230 229 225 233 244 245 246 250 253 144 166 160 162 162 170 221 243 257 264 265 265 258 261 266 268 268
215 230 226 223 222 230 246 241 239 243 249 233 236 236 227 230 223 227 237 235 237 244 248 254 304 62 158 161 160 167 167 202 236 253 258 262 272 273 268 269 265 263
256 210 225 233 231 236 246 244 237 268 262 266 253 252 261 243 244 234 231 232 237 243 251 255 48 13 18 18 40 129 159 210 242 255 257 256 255 255 252 256 267 270
44 51 239 233 211 212 236 239 242 246 257 280 285 281 265 261 259 273 265 335 3 358 348 27 40 44 21 21 9 25 331 242 246 247 251 255 253 254 267 264 275 331
68 69 55 41 28 62 205 204 204 205 225 320 289 288 278 309 298 277 347 10 51 104 124 174 32 23 23 47 53 17 299 254 265 268 258 257 265 268 279 24 38 39
74 73 73 71 85 133 136 54 58 41 47 32 2 12 24 53 37 326 226 13 122 125 81 131 77 28 8 31 30 46 345 287 281 281 12 2 346 4 16 329 330 42
67 78 95 94 65 67 82 101 74 70 93 68 66 43 73 128 171 42 355 353 53 106 65 70 86 62 25 21 35 28 10 286 286 13 349 245 263 298 359 280 69 54
85 79 80 87 91 80 59 37 34 45 43 75 65 48 94 91 78 99 110 51 92 110 98 80 73 59 31 19 21 24 8 266 132 156 245 271 279 170 260 313 82 126